GW3294 Weather Reports


Display with metric or nautical units.
time (UTC)temp
F
wind
direction
speed
MPH
gust
MPH
rain 1hr
in
rain 24hr
in
rain mn
in
humidity
%
barometer
mb
20260502170506 60 260 1.0 3.0 0.00 0.00 0.00 46 1022.6
20260502163949 61 141 3.0 7.0 0.00 0.00 0.00 44 1022.4
20260502163445 61 172 0.0 4.0 0.00 0.00 0.00 48 1022.3
20260502162943 60 13 1.0 5.0 0.00 0.00 0.00 52 1022.5
20260502162439 60 76 1.0 3.0 0.00 0.00 0.00 54 1022.4
20260502161937 60 213 0.0 4.0 0.00 0.00 0.00 49 1022.4
20260502161432 60 269 2.0 7.0 0.00 0.00 0.00 51 1022.5
20260502160931 60 166 0.0 4.0 0.00 0.00 0.00 51 1022.3
20260502160429 60 109 0.0 2.0 0.00 0.00 0.00 54 1022.2
20260502151902 60 134 2.0 4.0 0.00 0.00 0.00 57 1022.0
20260502151357 61 172 0.0 6.0 0.00 0.00 0.00 58 1022.2
20260502150855 60 160 1.0 6.0 0.00 0.00 0.00 58 1022.0
20260502150351 59 196 1.0 3.0 0.00 0.00 0.00 59 1022.1
20260502130740 50 114 0.0 3.0 0.00 0.00 0.00 88 1021.0
20260502130237 49 89 0.0 3.0 0.00 0.00 0.00 90 1021.3
20260502123723 46 135 0.0 2.0 0.00 0.00 0.00 94 1021.0
20260502123220 46 41 0.0 4.0 0.00 0.00 0.00 94 1020.8
20260502122717 45 87 1.0 2.0 0.00 0.00 0.00 95 1020.8
20260502122213 45 78 1.0 2.0 0.00 0.00 0.00 94 1020.8
20260502121711 44 121 2.0 3.0 0.00 0.00 0.00 94 1020.9
20260502121209 44 92 2.0 3.0 0.00 0.00 0.00 94 1020.8
20260502120705 43 105 2.0 2.0 0.00 0.00 0.00 94 1020.6
20260502120202 43 102 2.0 2.0 0.00 0.00 0.00 94 1020.7
20260502115700 43 93 1.0 2.0 0.00 0.00 0.00 94 1020.7
20260502115156 43 113 0.0 3.0 0.00 0.00 0.00 94 1020.5
20260502114652 43 105 1.0 2.0 0.00 0.00 0.00 94 1020.6
20260502114149 43 102 0.0 2.0 0.00 0.00 0.00 94 1020.5
20260502113646 43 87 0.0 2.0 0.00 0.00 0.00 94 1020.1
20260502113145 43 108 1.0 2.0 0.00 0.00 0.00 93 1020.2
20260502112642 43 82 2.0 3.0 0.00 0.00 0.00 93 1020.1
20260502112139 43 113 2.0 3.0 0.00 0.00 0.00 93 1020.0
20260502111637 43 103 2.0 3.0 0.00 0.00 0.00 92 1019.9
20260502111134 43 124 2.0 3.0 0.00 0.00 0.00 92 1020.0
20260502110632 43 95 1.0 2.0 0.00 0.00 0.00 92 1020.0
20260502110129 43 98 1.0 3.0 0.00 0.00 0.00 92 1019.8
20260502105626 43 94 2.0 2.0 0.00 0.00 0.00 92 1019.9
20260502105117 43 109 0.0 2.0 0.00 0.00 0.00 92 1019.8
20260502104614 43 109 2.0 3.0 0.00 0.00 0.00 91 1019.8
20260502104112 43 111 0.0 3.0 0.00 0.00 0.00 91 1019.8
20260502103610 43 104 0.0 2.0 0.00 0.00 0.00 91 1019.8
20260502103108 43 102 1.0 3.0 0.00 0.00 0.00 91 1019.8
20260502102604 44 101 1.0 2.0 0.00 0.00 0.00 91 1019.6
20260502102101 44 88 2.0 2.0 0.00 0.00 0.00 90 1019.5
20260502101559 44 89 0.0 2.0 0.00 0.00 0.00 90 1019.6
20260502101057 44 62 0.0 2.0 0.00 0.00 0.00 90 1019.8
20260502100555 45 106 1.0 2.0 0.00 0.00 0.00 89 1019.6
20260502091530 47 95 1.0 2.0 0.00 0.00 0.00 83 1019.2
20260502091027 48 101 1.0 3.0 0.00 0.00 0.00 82 1019.3
20260502090524 48 76 0.0 2.0 0.00 0.00 0.00 81 1019.2
20260502071418 50 105 2.0 4.0 0.00 0.00 0.00 80 1019.9
20260502070916 50 243 0.0 1.0 0.00 0.00 0.00 82 1019.6
20260502070414 49 303 0.0 2.0 0.00 0.00 0.00 81 1019.3
20260502065912 49 65 0.0 3.0 0.00 0.00 0.00 82 1019.3
20260502065411 48 141 1.0 2.0 0.00 0.00 0.00 82 1019.3
20260502064908 48 122 2.0 3.0 0.00 0.00 0.00 82 1019.4
20260502064405 48 76 2.0 3.0 0.00 0.00 0.00 83 1019.4
20260502063902 47 103 3.0 3.0 0.00 0.00 0.00 85 1019.6
20260502063400 47 133 3.0 4.0 0.00 0.00 0.00 87 1020.0
20260502062857 48 79 0.0 3.0 0.00 0.00 0.00 86 1019.7
20260502062354 47 53 0.0 1.0 0.00 0.00 0.00 86 1019.4
20260502061853 46 44 0.0 3.0 0.00 0.00 0.00 88 1019.5
20260502061350 46 111 1.0 3.0 0.00 0.00 0.00 87 1019.6
20260502060846 46 101 2.0 2.0 0.00 0.00 0.00 87 1019.4
20260502060342 47 108 2.0 3.0 0.00 0.00 0.00 86 1019.4
20260502055839 46 96 2.0 3.0 0.00 0.00 0.00 86 1019.4
20260502055337 47 114 2.0 3.0 0.00 0.00 0.00 86 1019.5
20260502054836 47 92 2.0 2.0 0.00 0.00 0.00 85 1019.6
20260502054334 47 106 2.0 3.0 0.00 0.00 0.00 84 1019.6
20260502053831 47 88 1.0 2.0 0.00 0.00 0.00 83 1019.6
20260502053328 48 112 1.0 2.0 0.00 0.00 0.00 83 1019.3
20260502052825 48 104 1.0 2.0 0.00 0.00 0.00 83 1019.5
20260502052324 47 110 2.0 3.0 0.00 0.00 0.00 84 1019.6
20260502051821 48 119 0.0 2.0 0.00 0.00 0.00 83 1019.8
20260502051320 48 79 1.0 2.0 0.00 0.00 0.00 81 1019.5
20260502050816 48 103 0.0 1.0 0.00 0.00 0.00 81 1019.3
20260502050313 48 101 1.0 3.0 0.00 0.00 0.00 81 1019.4
20260502045809 49 113 2.0 2.0 0.00 0.00 0.00 80 1019.5
20260502045306 49 110 1.0 2.0 0.00 0.00 0.00 78 1019.3
20260502044803 49 111 1.0 3.0 0.00 0.00 0.00 78 1019.6
20260502044259 49 104 2.0 3.0 0.00 0.00 0.00 80 1019.4
20260502043756 49 105 2.0 2.0 0.00 0.00 0.00 79 1019.6
20260502043254 49 108 1.0 2.0 0.00 0.00 0.00 80 1019.5
20260502042753 49 109 1.0 2.0 0.00 0.00 0.00 79 1019.6
20260502042250 50 99 1.0 2.0 0.00 0.00 0.00 78 1019.5
20260502041748 49 64 0.0 2.0 0.00 0.00 0.00 79 1019.6
20260502041245 50 128 1.0 2.0 0.00 0.00 0.00 78 1019.9
20260502040742 50 101 1.0 2.0 0.00 0.00 0.00 78 1019.5
20260502040240 50 120 0.0 2.0 0.00 0.00 0.00 78 1019.7
20260502035735 50 166 0.0 2.0 0.00 0.00 0.00 76 1019.9
20260502035232 50 120 0.0 2.0 0.00 0.00 0.00 76 1019.8
20260502034729 50 135 0.0 1.0 0.00 0.00 0.00 76 1019.8
20260502034227 51 105 1.0 2.0 0.00 0.00 0.00 74 1019.5
20260502033725 51 91 2.0 3.0 0.00 0.00 0.00 73 1019.5
20260502033223 51 93 2.0 2.0 0.00 0.00 0.00 73 1019.6
20260502032719 51 87 2.0 3.0 0.00 0.00 0.00 74 1019.8
20260502032215 51 104 0.0 2.0 0.00 0.00 0.00 74 1020.0
20260502031713 51 94 1.0 2.0 0.00 0.00 0.00 71 1019.6
20260502031211 52 94 1.0 2.0 0.00 0.00 0.00 68 1019.8
20260502030710 52 102 1.0 3.0 0.00 0.00 0.00 71 1019.9
20260502030207 52 94 2.0 3.0 0.00 0.00 0.00 70 1020.1
20260502025704 52 124 0.0 2.0 0.00 0.00 0.00 69 1020.0
20260502025202 52 117 0.0 2.0 0.00 0.00 0.00 69 1020.0
20260502024659 52 121 1.0 2.0 0.00 0.00 0.00 69 1019.8
20260502024158 52 117 1.0 1.0 0.00 0.00 0.00 68 1020.0
20260502023655 52 115 1.0 2.0 0.00 0.00 0.00 68 1019.9
20260502023152 52 95 2.0 2.0 0.00 0.00 0.00 68 1019.7
20260502022649 52 112 2.0 2.0 0.00 0.00 0.00 67 1019.7
20260502022146 52 95 1.0 3.0 0.00 0.00 0.00 68 1019.5
20260502021644 51 93 0.0 2.0 0.00 0.00 0.00 69 1019.5
20260502021140 52 110 2.0 3.0 0.00 0.00 0.00 67 1019.6
20260502020638 52 109 2.0 3.0 0.00 0.00 0.00 66 1019.4
20260502020134 52 89 2.0 2.0 0.00 0.00 0.00 65 1019.3
20260502015633 51 108 1.0 3.0 0.00 0.00 0.00 67 1019.3
20260502015128 52 108 2.0 2.0 0.00 0.00 0.00 65 1019.2
20260502014626 53 107 2.0 2.0 0.00 0.00 0.00 62 1019.2
20260502014123 53 107 2.0 2.0 0.00 0.00 0.00 63 1019.2
20260502013619 53 119 2.0 3.0 0.00 0.00 0.00 62 1019.2
20260502013115 53 113 0.0 2.0 0.00 0.00 0.00 61 1018.9
20260502012613 54 117 2.0 2.0 0.00 0.00 0.00 58 1018.8
20260502012111 53 110 2.0 3.0 0.00 0.00 0.00 59 1019.0
20260502011607 55 81 0.0 2.0 0.00 0.00 0.00 57 1018.8
20260502011102 55 95 1.0 2.0 0.00 0.00 0.00 57 1018.6
20260502010600 56 109 1.0 2.0 0.00 0.00 0.00 54 1018.7
20260502010056 56 120 0.0 2.0 0.00 0.00 0.00 53 1018.4
20260502005554 57 99 0.0 2.0 0.00 0.00 0.00 52 1018.6
20260502005052 57 94 1.0 2.0 0.00 0.00 0.00 50 1018.4
20260502004547 57 87 2.0 2.0 0.00 0.00 0.00 50 1018.1
20260502004044 59 111 2.0 2.0 0.00 0.00 0.00 49 1018.4
20260502003542 59 89 0.0 1.0 0.00 0.00 0.00 49 1018.3
20260502003039 59 81 2.0 2.0 0.00 0.00 0.00 48 1018.1
20260502002535 59 66 0.0 2.0 0.00 0.00 0.00 45 1018.4
20260502002032 60 128 0.0 1.0 0.00 0.00 0.00 44 1018.3
20260502001530 60 74 2.0 3.0 0.00 0.00 0.00 41 1018.2
20260502001027 60 175 0.0 2.0 0.00 0.00 0.00 38 1018.2
20260502000526 61 223 1.0 3.0 0.00 0.00 0.00 38 1018.3
20260502000023 61 129 0.0 2.0 0.00 0.00 0.00 38 1018.1
20260501235519 61 147 0.0 4.0 0.00 0.00 0.00 37 1018.1
20260501235014 61 115 2.0 3.0 0.00 0.00 0.00 40 1018.2
20260501234510 61 217 0.0 3.0 0.00 0.00 0.00 38 1018.1
20260501234009 61 127 3.0 4.0 0.00 0.00 0.00 39 1018.0
20260501233506 62 197 0.0 1.0 0.00 0.00 0.00 41 1018.1
20260501233002 64 121 1.0 3.0 0.00 0.00 0.00 38 1017.8
20260501232459 63 229 0.0 1.0 0.00 0.00 0.00 37 1017.9
20260501231956 63 121 3.0 3.0 0.00 0.00 0.00 40 1017.7
20260501231454 62 148 0.0 8.0 0.00 0.00 0.00 34 1017.8
20260501230952 63 167 3.0 5.0 0.00 0.00 0.00 34 1017.8
20260501230451 62 230 1.0 6.0 0.00 0.00 0.00 34 1017.7
20260501225948 63 242 3.0 7.0 0.00 0.00 0.00 34 1017.9
20260501225446 63 213 2.0 6.0 0.00 0.00 0.00 35 1018.1
20260501224941 64 203 3.0 7.0 0.00 0.00 0.00 34 1018.0
20260501224439 64 261 3.0 4.0 0.00 0.00 0.00 34 1018.0
20260501223936 63 195 3.0 4.0 0.00 0.00 0.00 38 1018.0
20260501223432 64 323 1.0 8.0 0.00 0.00 0.00 35 1018.3
20260501222927 64 352 2.0 10.0 0.00 0.00 0.00 33 1018.4
20260501222425 66 133 2.0 5.0 0.00 0.00 0.00 33 1018.3
20260501221921 68 192 0.0 4.0 0.00 0.00 0.00 30 1018.4
20260501221419 68 231 3.0 4.0 0.00 0.00 0.00 33 1018.6
20260501220916 67 266 3.0 7.0 0.00 0.00 0.00 34 1018.4
20260501220414 68 157 1.0 6.0 0.00 0.00 0.00 30 1018.6
20260501215910 69 17 3.0 7.0 0.00 0.00 0.00 31 1018.7
20260501215407 69 250 2.0 3.0 0.00 0.00 0.00 30 1018.8
20260501214902 68 156 2.0 5.0 0.00 0.00 0.00 32 1018.6
20260501214357 66 64 1.0 4.0 0.00 0.00 0.00 32 1018.6
20260501213853 69 57 1.0 7.0 0.00 0.00 0.00 30 1018.7
20260501213350 66 167 2.0 7.0 0.00 0.00 0.00 32 1019.0
20260501212845 65 203 0.0 3.0 0.00 0.00 0.00 37 1018.9
20260501212343 65 190 0.0 4.0 0.00 0.00 0.00 38 1019.1
20260501211840 66 232 0.0 5.0 0.00 0.00 0.00 35 1019.0
20260501211337 67 329 0.0 6.0 0.00 0.00 0.00 32 1019.1
20260501210834 65 119 0.0 4.0 0.00 0.00 0.00 39 1019.1
20260501210331 66 96 2.0 5.0 0.00 0.00 0.00 36 1019.4
20260501205827 66 322 0.0 5.0 0.00 0.00 0.00 33 1019.4
20260501205324 66 128 1.0 7.0 0.00 0.00 0.00 36 1019.4
20260501204816 67 247 3.0 5.0 0.00 0.00 0.00 34 1019.7
20260501204312 70 203 0.0 5.0 0.00 0.00 0.00 35 1019.8
20260501203808 67 276 2.0 4.0 0.00 0.00 0.00 36 1019.7
20260501203306 67 260 2.0 2.0 0.00 0.00 0.00 33 1020.1
20260501202803 66 94 2.0 4.0 0.00 0.00 0.00 36 1020.1
20260501202300 64 214 2.0 5.0 0.00 0.00 0.00 36 1020.1
20260501201757 65 235 0.0 7.0 0.00 0.00 0.00 37 1020.3
20260501201253 66 203 2.0 11.0 0.00 0.00 0.00 32 1020.3
20260501200750 68 193 1.0 3.0 0.00 0.00 0.00 33 1020.1
20260501200247 68 127 0.0 6.0 0.00 0.00 0.00 30 1020.4
20260501195745 69 210 1.0 7.0 0.00 0.00 0.00 34 1020.3
20260501195240 70 172 0.0 5.0 0.00 0.00 0.00 35 1020.2
20260501194736 68 248 1.0 6.0 0.00 0.00 0.00 34 1020.4
20260501194232 65 166 0.0 3.0 0.00 0.00 0.00 39 1020.5
20260501193728 67 142 3.0 5.0 0.00 0.00 0.00 34 1020.7
20260501193227 64 121 3.0 4.0 0.00 0.00 0.00 33 1020.8
20260501192724 67 357 0.0 3.0 0.00 0.00 0.00 34 1020.8
20260501192221 67 145 4.0 5.0 0.00 0.00 0.00 37 1020.7
20260501191719 68 341 0.0 3.0 0.00 0.00 0.00 35 1020.7
20260501191216 69 46 1.0 8.0 0.00 0.00 0.00 33 1020.6
20260501190713 69 152 4.0 5.0 0.00 0.00 0.00 33 1020.6
20260501190208 68 162 2.0 7.0 0.00 0.00 0.00 34 1020.6
20260501185704 68 261 0.0 7.0 0.00 0.00 0.00 34 1020.6
20260501185200 66 301 2.0 4.0 0.00 0.00 0.00 34 1020.6
20260501184656 65 278 1.0 6.0 0.00 0.00 0.00 40 1020.6
20260501184151 64 237 2.0 3.0 0.00 0.00 0.00 37 1020.9
20260501183647 69 249 2.0 5.0 0.00 0.00 0.00 31 1020.7
20260501183144 68 281 3.0 7.0 0.00 0.00 0.00 36 1020.8
20260501182641 67 239 3.0 5.0 0.00 0.00 0.00 35 1020.9
20260501182137 66 185 1.0 4.0 0.00 0.00 0.00 39 1020.7
20260501181635 66 207 1.0 10.0 0.00 0.00 0.00 33 1020.7
20260501181131 67 273 2.0 5.0 0.00 0.00 0.00 38 1020.9
20260501180630 66 284 5.0 7.0 0.00 0.00 0.00 33 1021.1
20260501180126 65 149 1.0 5.0 0.00 0.00 0.00 37 1020.9
20260501175623 67 159 3.0 6.0 0.00 0.00 0.00 33 1021.0
20260501175120 67 289 1.0 6.0 0.00 0.00 0.00 38 1021.1
20260501174616 67 128 0.0 5.0 0.00 0.00 0.00 35 1021.1
20260501174114 65 214 3.0 9.0 0.00 0.00 0.00 34 1021.4
20260501173611 65 88 3.0 6.0 0.00 0.00 0.00 35 1021.1
20260501173108 65 260 4.0 6.0 0.00 0.00 0.00 33 1021.3
20260501172603 66 257 3.0 7.0 0.00 0.00 0.00 32 1021.5
20260501172059 66 204 2.0 5.0 0.00 0.00 0.00 34 1021.6
20260501171555 65 34 2.0 7.0 0.00 0.00 0.00 34 1021.5